• în Republica Moldova
  • Lista ţărilor
  • Pe 7 zile
  • Temperatura apei
  • Hartă satelitară
  • Meteo pe hartă
  • Widget-uri
  • user-avatar
    Intrare

    Meteo pe oră la Naftalan

    Astăzi, 26 Aprilie, Joi

    Timp Temperatura Precipitaţii Vânt Presiune Umiditate
    00:00 +13°C° 0 mm 1 m/s 767 mmHg 91%
    01:00 +13°C° 0 mm 1 m/s 767 mmHg 91%
    02:00 +13°C° 0 mm 1 m/s 767 mmHg 91%
    03:00 +12°C° 0 mm 1 m/s 766 mmHg 91%
    04:00 +13°C° 0 mm 1 m/s 766 mmHg 89%
    05:00 +14°C° 0 mm 1 m/s 767 mmHg 86%
    06:00 +14°C° 0 mm 1 m/s 767 mmHg 84%
    07:00 +16°C° 0 mm 1 m/s 767 mmHg 76%
    08:00 +19°C° 0 mm 1 m/s 767 mmHg 68%
    09:00 +21°C° 0 mm 2 m/s 767 mmHg 58%
    10:00 +23°C° 0 mm 2 m/s 767 mmHg 54%
    11:00 +24°C° 0 mm 2 m/s 766 mmHg 51%
    12:00 +25°C° 0 mm 3 m/s 766 mmHg 47%
    13:00 +25°C° 0 mm 3 m/s 766 mmHg 48%
    14:00 +25°C° 0 mm 4 m/s 766 mmHg 48%
    15:00 +23°C° 0 mm 5 m/s 765 mmHg 50%
    16:00 +22°C° 0 mm 4 m/s 766 mmHg 53%
    17:00 +20°C° 0 mm 4 m/s 766 mmHg 57%
    18:00 +19°C° 0 mm 4 m/s 766 mmHg 60%
    19:00 +18°C° 0 mm 3 m/s 766 mmHg 62%
    20:00 +17°C° 0 mm 3 m/s 766 mmHg 65%
    21:00 +16°C° 0 mm 3 m/s 767 mmHg 67%
    22:00 +16°C° 0 mm 2 m/s 766 mmHg 69%
    23:00 +15°C° 0 mm 2 m/s 766 mmHg 70%

    Mâine, 27 Aprilie, Vineri

    Timp Temperatura Precipitaţii Vânt Presiune Umiditate
    00:00 +15°C° 0 mm 2 m/s 766 mmHg 71%
    01:00 +15°C° 0 mm 1 m/s 766 mmHg 72%
    02:00 +14°C° 0 mm 1 m/s 766 mmHg 74%
    03:00 +13°C° 0 mm 0 m/s 765 mmHg 75%
    04:00 +13°C° 0 mm 0 m/s 766 mmHg 73%
    05:00 +15°C° 0 mm 1 m/s 766 mmHg 71%
    06:00 +16°C° 0 mm 1 m/s 766 mmHg 70%
    07:00 +19°C° 0 mm 1 m/s 766 mmHg 63%
    08:00 +21°C° 0 mm 1 m/s 766 mmHg 57%
    09:00 +22°C° 0 mm 1 m/s 766 mmHg 50%
    10:00 +24°C° 0 mm 1 m/s 766 mmHg 46%
    11:00 +25°C° 0 mm 2 m/s 765 mmHg 41%
    12:00 +27°C° 0 mm 2 m/s 765 mmHg 37%
    13:00 +27°C° 0 mm 3 m/s 765 mmHg 36%
    14:00 +27°C° 0 mm 3 m/s 764 mmHg 35%
    15:00 +27°C° 0 mm 4 m/s 764 mmHg 34%
    16:00 +25°C° 0 mm 3 m/s 764 mmHg 40%
    17:00 +22°C° 0 mm 3 m/s 764 mmHg 45%
    18:00 +20°C° 0 mm 2 m/s 763 mmHg 51%
    19:00 +19°C° 0 mm 2 m/s 763 mmHg 50%
    20:00 +20°C° 0 mm 1 m/s 763 mmHg 50%
    21:00 +19°C° 0 mm 1 m/s 763 mmHg 49%
    22:00 +18°C° 0 mm 1 m/s 762 mmHg 52%
    23:00 +18°C° 0 mm 1 m/s 762 mmHg 55%

    Poimâine, 28 Aprilie, Sâmbătă

    Timp Temperatura Precipitaţii Vânt Presiune Umiditate
    00:00 +15°C° 0 mm 0 m/s 762 mmHg 58%
    01:00 +16°C° 0 mm 1 m/s 762 mmHg 58%
    02:00 +16°C° 0 mm 1 m/s 761 mmHg 58%
    03:00 +17°C° 0 mm 2 m/s 761 mmHg 58%
    04:00 +17°C° 0 mm 2 m/s 761 mmHg 60%
    05:00 +17°C° 0 mm 2 m/s 761 mmHg 61%
    06:00 +18°C° 0 mm 3 m/s 761 mmHg 63%
    07:00 +20°C° 0 mm 3 m/s 761 mmHg 56%
    08:00 +22°C° 0 mm 3 m/s 762 mmHg 48%
    09:00 +25°C° 0 mm 4 m/s 762 mmHg 41%
    10:00 +26°C° 0 mm 3 m/s 762 mmHg 38%
    11:00 +28°C° 0 mm 2 m/s 762 mmHg 35%
    12:00 +29°C° 0 mm 2 m/s 762 mmHg 31%
    13:00 +29°C° 0 mm 3 m/s 761 mmHg 31%
    14:00 +30°C° 0 mm 3 m/s 761 mmHg 30%
    15:00 +30°C° 0 mm 4 m/s 761 mmHg 30%
    16:00 +28°C° 0 mm 4 m/s 761 mmHg 36%
    17:00 +26°C° 0 mm 4 m/s 761 mmHg 43%
    18:00 +23°C° 0 mm 4 m/s 761 mmHg 49%
    19:00 +22°C° 0 mm 4 m/s 762 mmHg 50%
    20:00 +21°C° 0 mm 4 m/s 763 mmHg 51%
    21:00 +20°C° 0 mm 4 m/s 764 mmHg 52%
    22:00 +20°C° 0 mm 4 m/s 764 mmHg 51%
    23:00 +20°C° 0 mm 3 m/s 764 mmHg 49%

    29 Aprilie, Duminică

    Timp Temperatura Precipitaţii Vânt Presiune Umiditate
    00:00 +20°C° 0 mm 3 m/s 764 mmHg 48%
    01:00 +20°C° 0 mm 3 m/s 764 mmHg 49%
    02:00 +19°C° 0 mm 3 m/s 764 mmHg 49%
    03:00 +19°C° 0 mm 2 m/s 764 mmHg 50%
    04:00 +19°C° 0 mm 2 m/s 764 mmHg 51%
    05:00 +20°C° 0 mm 2 m/s 765 mmHg 52%
    06:00 +20°C° 0 mm 2 m/s 765 mmHg 54%
    07:00 +21°C° 0 mm 2 m/s 765 mmHg 53%
    08:00 +23°C° 0 mm 1 m/s 766 mmHg 52%
    09:00 +24°C° 0 mm 1 m/s 766 mmHg 51%
    10:00 +24°C° 0 mm 2 m/s 766 mmHg 49%
    11:00 +25°C° 0 mm 3 m/s 766 mmHg 48%
    12:00 +26°C° 0 mm 4 m/s 766 mmHg 47%
    13:00 +26°C° 0 mm 5 m/s 766 mmHg 46%
    14:00 +26°C° 0 mm 6 m/s 766 mmHg 45%
    15:00 +26°C° 0 mm 7 m/s 766 mmHg 44%
    16:00 +24°C° 0 mm 7 m/s 766 mmHg 46%
    17:00 +22°C° 0 mm 8 m/s 766 mmHg 49%
    18:00 +21°C° 0 mm 8 m/s 766 mmHg 51%
    19:00 +20°C° 0 mm 8 m/s 767 mmHg 49%
    20:00 +18°C° 0 mm 7 m/s 767 mmHg 47%
    21:00 +17°C° 0 mm 7 m/s 768 mmHg 46%
    22:00 +17°C° 0 mm 6 m/s 768 mmHg 43%
    23:00 +17°C° 0 mm 6 m/s 768 mmHg 40%

    30 Aprilie, Luni

    Timp Temperatura Precipitaţii Vânt Presiune Umiditate
    00:00 +16°C° 0 mm 5 m/s 768 mmHg 38%
    01:00 +15°C° 0 mm 5 m/s 768 mmHg 37%
    02:00 +15°C° 0 mm 5 m/s 768 mmHg 37%
    03:00 +14°C° 0 mm 5 m/s 769 mmHg 36%
    04:00 +14°C° 0 mm 5 m/s 769 mmHg 38%
    05:00 +14°C° 0 mm 5 m/s 769 mmHg 40%
    06:00 +14°C° 0 mm 4 m/s 770 mmHg 43%
    07:00 +17°C° 0 mm 4 m/s 770 mmHg 39%
    08:00 +19°C° 0 mm 4 m/s 770 mmHg 35%
    09:00 +21°C° 0 mm 4 m/s 770 mmHg 32%
    10:00 +22°C° 0 mm 5 m/s 770 mmHg 31%
    11:00 +22°C° 0 mm 5 m/s 770 mmHg 30%
    12:00 +23°C° 0 mm 5 m/s 770 mmHg 29%
    13:00 +23°C° 0 mm 5 m/s 770 mmHg 30%
    14:00 +23°C° 0 mm 5 m/s 769 mmHg 31%
    15:00 +23°C° 0 mm 5 m/s 769 mmHg 32%
    16:00 +21°C° 0 mm 4 m/s 769 mmHg 37%
    17:00 +20°C° 0 mm 3 m/s 770 mmHg 42%
    18:00 +18°C° 0 mm 3 m/s 770 mmHg 47%
    19:00 +17°C° 0 mm 2 m/s 770 mmHg 51%
    20:00 +16°C° 0 mm 2 m/s 771 mmHg 54%
    21:00 +14°C° 0 mm 1 m/s 771 mmHg 57%
    22:00 +14°C° 0 mm 1 m/s 771 mmHg 58%
    23:00 +14°C° 0 mm 1 m/s 771 mmHg 59%

    1 Mai, Marţi

    Timp Temperatura Precipitaţii Vânt Presiune Umiditate
    00:00 +13°C° 0 mm 1 m/s 770 mmHg 59%
    01:00 +13°C° 0 mm 1 m/s 770 mmHg 60%
    02:00 +12°C° 0 mm 1 m/s 770 mmHg 60%
    03:00 +12°C° 0 mm 1 m/s 770 mmHg 60%
    04:00 +13°C° 0 mm 1 m/s 770 mmHg 58%
    05:00 +14°C° 0 mm 1 m/s 770 mmHg 56%
    06:00 +14°C° 0 mm 1 m/s 770 mmHg 54%
    07:00 +16°C° 0 mm 1 m/s 770 mmHg 47%
    08:00 +20°C° 0 mm 1 m/s 770 mmHg 40%
    09:00 +22°C° 0 mm 1 m/s 770 mmHg 33%
    10:00 +23°C° 0 mm 2 m/s 770 mmHg 31%
    11:00 +24°C° 0 mm 2 m/s 770 mmHg 28%
    12:00 +25°C° 0 mm 3 m/s 769 mmHg 26%
    13:00 +25°C° 0 mm 3 m/s 769 mmHg 27%
    14:00 +26°C° 0 mm 4 m/s 769 mmHg 28%
    15:00 +26°C° 0 mm 5 m/s 768 mmHg 29%
    16:00 +23°C° 0 mm 5 m/s 769 mmHg 34%
    17:00 +21°C° 0 mm 5 m/s 769 mmHg 39%
    18:00 +19°C° 0 mm 5 m/s 769 mmHg 43%
    19:00 +17°C° 0 mm 5 m/s 769 mmHg 47%
    20:00 +16°C° 0 mm 5 m/s 769 mmHg 50%
    21:00 +15°C° 0 mm 4 m/s 769 mmHg 54%
    22:00 +15°C° 0 mm 4 m/s 769 mmHg 57%
    23:00 +14°C° 0 mm 4 m/s 769 mmHg 60%
    Arată mai mult